SCP
-0 -0 0 0 0 0 0 0 0 0 0 0 0 0 0 0 -0 -0 0 -0 -0 -0 -0 0 0 0 0 0 0 0 0 0 0 0 -0 -0 0 0
0 0 0 0 0 0 0 0 0 0 0 0 0 0 0 0 -0 0 0 -0 -0 -0 -0 0 0 0 0 0 0 0 0 0 0 0 0 0 0 0
0 0 0 0 0 0 0 0 0 0 0 0 0 0 0 0 -0 0 0 0 0 0 -0 -0 0 0 0 0 0 0 0 0 0 0 0 0 0 0
0 0 0 0 0 0 0 0 0 0 0 0 0 0 0 0 -0 -0 0 0 0 0 -0 -0 0 0 0 0 0 0 0 0 0 0 0 0 0 0
0 0 0 0 0 0 0 0 0 0 0 0 0 0 0 0 0 0 0 0 0 0 0 0 0 0 0 0 0 0 0 0 0 0 0 0 0 0
0 0 0 0 0 0 0 0 0 0 0 0 0 0 0 0 0 0 0 0 0 0 0 0 0 0 0 0 0 0 0 0 0 0 0 0 0 0
0 0 0 0 0 0 0 0 0 0 0 0 0 0 0 0 0 0 0 0 0 0 0 0 0 0 0 0 0 0 0 0 0 0 0 0 0 0
1 0 1 0 0 0 0 0 0 0 0 0 0 0 0 0 0 0 0 0 0 0 0 0 0 0 0 0 0 0 0 0 0 0 0 0 0 0
1 1 0 0 0 0 0 0 0 0 0 0 0 0 0 0 0 0 0 0 0 0 0 0 0 0 0 0 0 0 0 0 0 0 0 0 0 0
0 0 0 0 0 0 0 0 0 0 0 0 0 0 0 0 0 0 0 0 0 0 0 0 0 0 0 0 0 0 0 0 0 0 0 0 0 0
0 0 0 0 -0 -0 0 0 0 0 0 0 0 0 0 0 0 0 0 0 0 0 0 0 0 0 0 0 0 0 0 0 0 0 0 0 0 0
0 0 0 -0 -0 0 0 0 0 0 0 0 0 0 0 0 0 0 0 0 0 0 0 0 0 0 0 0 0 0 0 0 0 0 0 0 0 0
0 0 0 0 0 -0 0 0 1 1 0 0 0 0 0 0 0 0 0 0 0 0 0 0 0 0 0 0 0 0 0 0 0 0 0 0 0 0
1 1 0 -0 -0 0 0 0 0 0 0 0 0 0 0 0 0 0 0 0 0 0 0 0 0 0 0 0 0 0 0 0 0 0 0 0 0 0
1 1 1 1 0 0 0 0 0 0 0 0 0 0 0 0 0 0 0 0 0 0 0 0 0 0 0 0 0 0 0 0 0 0 0 0 0 0
0 0 0 0 0 0 0 0 0 0 0 0 0 0 0 0 0 0 0 0 0 0 0 0 0 0 0 0 0 0 0 0 0 0 0 0 0 0
0 0 0 0 0 0 0 0 0 0 0 0 0 0 0 0 0 0 0 0 0 0 0 0 0 0 0 0 0 0 0 0 0 0 0 0 0 0
0 0 0 0 0 0 0 0 0 0 0 0 0 0 0 0 0 0 0 0 0 0 0 0 0 0 0 0 0 0 0 0 0 0 0 0 0 0
0 0 0 0 0 0 0 0 0 0 0 0 0 0 0 0 0 0 0 0 0 0 0 0 0 0 0 0 0 0 0 0 0 0 0 0 0 0
0 0 0 0 0 0 0 0 0 0 0 0 0 0 0 0 0 0 0 0 0 0 0 0 0 0 0 0 0 0 0 0 0 0 0 0 0 0
0 0 0 0 0 0 0 0 0 0 0 0 0 0 0 0 0 0 0 0 0 0 0 0 0 0 0 0 0 0 0 0 0 0 0 0 0 0
0 0 0 0 0 0 0 0 0 0 0 0 0 0 0 0 0 0 0 0 0 0 0 0 0 0 0 0 0 0 0 0 0 0 0 0 0 0
0 0 0 0 0 0 0 0 0 0 0 0 0 0 0 0 0 0 0 0 0 0 0 0 0 0 0 0 0 0 0 0 0 0 0 0 0 0
Wind_Speed_500mb
41 37 38 36 35 30 28 31 31 31 35 39 40 37 33 30 28 33 28 29 27 27 24 24 27 30 29 30 32 33 33 37 44 46 45 45 45 45
43 41 41 43 42 39 31 29 32 33 33 40 45 47 39 35 34 36 34 36 34 32 28 27 26 25 21 22 24 29 32 34 36 40 43 46 49 48
45 45 42 41 45 47 45 42 39 35 34 32 39 46 46 43 42 39 40 38 37 35 30 26 21 18 15 14 15 19 26 31 33 34 36 39 42 47
50 48 46 46 41 41 42 48 49 42 40 40 42 44 46 45 47 45 44 40 38 37 33 27 21 18 16 14 11 12 15 20 26 31 37 39 41 43
52 52 49 44 45 42 41 42 44 44 41 41 41 44 46 49 52 55 52 46 43 40 38 34 29 22 17 14 13 12 11 12 13 16 19 22 26 30
55 51 50 50 50 47 46 44 46 50 49 48 44 44 46 48 55 59 59 52 47 45 45 41 36 29 24 20 19 16 14 14 14 13 14 13 15 17
44 49 52 52 52 53 52 54 53 56 57 59 56 53 52 53 64 63 60 53 50 49 47 45 46 40 32 26 24 22 18 17 16 15 14 13 14 15
44 44 48 53 56 59 62 61 58 61 63 63 68 67 58 54 55 61 63 61 62 56 53 47 48 47 41 32 23 21 20 17 16 18 20 20 21 21
54 56 58 59 60 66 67 67 71 68 68 65 72 71 64 61 56 61 62 63 61 55 50 45 45 49 43 41 33 28 26 24 22 23 25 27 27 26
71 64 63 62 60 64 66 78 81 79 81 78 76 74 69 58 57 49 53 59 64 65 61 58 42 48 43 41 40 37 34 32 30 28 29 28 25 24
74 67 55 55 72 59 65 78 82 85 82 81 81 78 72 66 58 55 62 62 68 75 72 63 55 47 44 45 43 42 42 40 35 32 28 25 22 18
53 69 84 83 76 62 78 87 92 89 86 82 78 82 77 70 69 68 68 69 66 66 71 68 67 57 57 53 51 51 48 45 39 35 31 26 24 17
52 57 51 43 80 101 78 81 80 81 77 64 61 66 72 69 77 86 79 70 71 66 62 54 64 69 65 48 52 54 50 49 44 36 34 32 26 21
36 37 36 47 55 73 70 75 74 68 71 57 51 73 76 79 82 83 79 77 70 68 62 58 68 68 69 66 61 47 44 52 46 37 37 34 30 25
16 21 33 42 55 68 71 69 59 55 70 73 70 77 75 67 68 71 75 68 70 73 66 60 60 63 65 63 55 56 47 54 53 46 45 41 36 33
24 27 29 34 41 48 62 59 53 52 57 58 53 44 51 55 62 64 74 77 76 71 66 62 62 65 65 52 62 43 51 52 54 56 51 46 44 41
33 36 39 41 42 46 45 48 53 47 49 54 53 50 48 57 60 56 61 71 69 66 62 65 60 52 60 55 48 45 45 50 49 47 55 50 49 44
39 45 43 43 44 39 42 49 54 54 48 45 50 51 48 50 56 56 65 65 62 63 62 64 67 59 56 57 60 51 51 57 54 46 42 47 49 44
41 41 44 48 45 38 39 45 52 51 52 55 53 56 53 56 56 60 63 62 63 64 65 65 72 63 61 59 56 50 55 47 52 54 45 49 48 47
47 49 46 49 51 43 44 47 46 56 57 59 59 63 59 59 59 62 64 64 65 66 67 72 71 66 67 70 63 56 54 61 56 52 42 48 58 55
31 43 49 51 49 47 41 41 42 49 51 53 57 63 65 64 65 65 67 65 66 70 73 74 74 66 63 64 66 69 58 56 73 67 57 61 64 71
32 39 42 49 50 46 50 48 45 46 49 57 58 65 65 70 70 70 73 70 70 75 74 63 62 67 71 75 78 73 68 68 63 62 61 63 66 65
30 31 37 42 47 49 53 57 55 51 53 56 63 63 66 70 73 75 76 72 70 74 72 67 65 64 66 69 70 70 67 66 73 67 64 66 63 63
Wind_Direction_500mb
225 234 235 240 244 252 249 236 246 248 247 246 242 241 237 226 232 232 243 243 245 251 262 279 288 293 280 267 255 246 239 233 233 237 237 239 241 244
233 238 239 238 240 243 249 242 238 255 266 255 245 242 246 242 236 235 238 238 245 251 263 279 288 297 284 270 256 246 241 237 236 237 241 242 243 244
241 240 239 241 248 244 244 245 246 254 264 263 248 243 248 247 244 239 236 238 243 248 259 267 281 304 299 280 264 251 244 242 240 241 242 243 244 246
241 244 241 239 244 245 250 250 250 255 264 262 254 242 237 239 244 244 241 240 244 247 255 259 260 280 289 282 270 255 246 240 240 239 241 244 246 248
241 243 245 241 246 249 256 258 256 258 260 262 254 248 243 240 236 234 236 240 241 246 252 255 251 261 271 270 258 254 252 252 243 237 240 244 246 249
241 242 242 243 245 249 254 259 266 267 262 259 254 248 243 238 234 231 230 236 239 245 251 252 245 248 254 263 252 245 250 251 248 244 244 243 245 251
245 246 249 251 252 254 257 258 260 260 259 256 253 248 245 242 231 229 232 237 242 247 250 251 246 246 248 254 251 245 243 249 246 252 251 257 258 255
256 260 263 263 260 258 256 257 256 255 254 253 253 252 253 247 241 238 236 237 238 244 247 255 245 244 241 244 249 240 230 241 244 254 263 266 260 258
253 252 251 249 256 265 264 259 255 250 251 253 253 252 253 252 249 241 243 245 252 255 255 256 252 244 241 242 240 237 234 240 248 258 268 270 266 259
261 253 254 256 261 265 264 265 259 253 246 244 247 252 252 253 255 258 255 255 255 253 253 255 262 254 246 238 236 239 242 246 253 263 270 268 259 250
256 251 265 266 282 266 272 273 268 259 257 252 251 251 249 243 243 246 245 246 249 249 247 251 254 250 243 238 237 237 241 245 247 258 255 247 241 235
255 256 260 270 275 262 279 279 278 272 265 260 255 252 248 235 235 236 241 242 248 252 251 249 249 244 243 242 240 238 238 236 238 246 241 225 217 221
255 262 275 295 258 247 275 277 273 278 273 260 259 252 251 246 240 231 232 237 241 247 253 259 256 244 242 244 243 239 240 232 229 237 220 211 213 218
266 262 243 235 246 267 270 268 267 265 268 252 242 250 245 241 236 232 231 238 244 256 263 265 261 250 243 242 241 238 235 231 222 220 213 211 214 219
297 288 267 259 261 264 265 259 259 252 253 255 251 249 250 251 236 231 231 237 243 250 254 254 254 246 244 242 245 247 236 229 221 218 212 213 220 224
293 287 286 271 261 262 262 257 254 250 249 248 258 259 259 242 235 233 232 230 242 253 248 240 243 240 235 236 242 249 247 230 223 220 219 222 226 231
272 268 277 284 287 275 268 257 252 250 241 246 246 249 245 238 234 236 233 234 247 247 239 235 236 225 227 225 232 228 241 240 232 231 226 230 232 233
258 259 267 274 285 287 282 273 256 253 245 241 242 243 240 235 236 233 241 243 242 236 236 232 224 213 226 228 227 231 232 241 237 235 232 238 230 239
267 264 267 271 274 272 279 270 268 256 251 249 247 243 236 239 243 239 240 242 235 232 232 228 223 221 220 223 230 226 220 222 237 230 238 241 245 260
273 275 278 274 271 266 273 280 264 258 255 256 258 248 242 245 246 248 243 237 233 232 231 226 225 233 227 226 217 216 236 241 225 231 238 255 258 262
279 269 262 269 266 267 270 273 269 265 263 264 260 259 248 247 249 251 246 239 234 229 228 231 232 233 230 234 235 230 231 234 232 234 255 256 259 260
287 271 273 265 258 267 269 273 273 265 261 260 262 257 256 260 248 253 248 235 231 228 234 238 231 228 230 231 234 237 235 232 236 242 243 248 252 253
286 287 279 274 271 273 272 271 272 271 263 262 261 258 258 257 254 249 247 242 235 230 233 233 229 226 230 230 229 231 231 235 228 230 238 248 249 249
Wind_Speed_850mb
41 37 38 36 35 30 28 31 31 31 35 39 40 37 33 30 28 33 28 29 27 27 24 24 27 30 29 30 32 33 33 37 44 46 45 45 45 45
43 41 41 43 42 39 31 29 32 33 33 40 45 47 39 35 34 36 34 36 34 32 28 27 26 25 21 22 24 29 32 34 36 40 43 46 49 48
45 45 42 41 45 47 45 42 39 35 34 32 39 46 46 43 42 39 40 38 37 35 30 26 21 18 15 14 15 19 26 31 33 34 36 39 42 47
50 48 46 46 41 41 42 48 49 42 40 40 42 44 46 45 47 45 44 40 38 37 33 27 21 18 16 14 11 12 15 20 26 31 37 39 41 43
52 52 49 44 45 42 41 42 44 44 41 41 41 44 46 49 52 55 52 46 43 40 38 34 29 22 17 14 13 12 11 12 13 16 19 22 26 30
55 51 50 50 50 47 46 44 46 50 49 48 44 44 46 48 55 59 59 52 47 45 45 41 36 29 24 20 19 16 14 14 14 13 14 13 15 17
44 49 52 52 52 53 52 54 53 56 57 59 56 53 52 53 64 63 60 53 50 49 47 45 46 40 32 26 24 22 18 17 16 15 14 13 14 15
44 44 48 53 56 59 62 61 58 61 63 63 68 67 58 54 55 61 63 61 62 56 53 47 48 47 41 32 23 21 20 17 16 18 20 20 21 21
54 56 58 59 60 66 67 67 71 68 68 65 72 71 64 61 56 61 62 63 61 55 50 45 45 49 43 41 33 28 26 24 22 23 25 27 27 26
71 64 63 62 60 64 66 78 81 79 81 78 76 74 69 58 57 49 53 59 64 65 61 58 42 48 43 41 40 37 34 32 30 28 29 28 25 24
74 67 55 55 72 59 65 78 82 85 82 81 81 78 72 66 58 55 62 62 68 75 72 63 55 47 44 45 43 42 42 40 35 32 28 25 22 18
53 69 84 83 76 62 78 87 92 89 86 82 78 82 77 70 69 68 68 69 66 66 71 68 67 57 57 53 51 51 48 45 39 35 31 26 24 17
52 57 51 43 80 101 78 81 80 81 77 64 61 66 72 69 77 86 79 70 71 66 62 54 64 69 65 48 52 54 50 49 44 36 34 32 26 21
36 37 36 47 55 73 70 75 74 68 71 57 51 73 76 79 82 83 79 77 70 68 62 58 68 68 69 66 61 47 44 52 46 37 37 34 30 25
16 21 33 42 55 68 71 69 59 55 70 73 70 77 75 67 68 71 75 68 70 73 66 60 60 63 65 63 55 56 47 54 53 46 45 41 36 33
24 27 29 34 41 48 62 59 53 52 57 58 53 44 51 55 62 64 74 77 76 71 66 62 62 65 65 52 62 43 51 52 54 56 51 46 44 41
33 36 39 41 42 46 45 48 53 47 49 54 53 50 48 57 60 56 61 71 69 66 62 65 60 52 60 55 48 45 45 50 49 47 55 50 49 44
39 45 43 43 44 39 42 49 54 54 48 45 50 51 48 50 56 56 65 65 62 63 62 64 67 59 56 57 60 51 51 57 54 46 42 47 49 44
41 41 44 48 45 38 39 45 52 51 52 55 53 56 53 56 56 60 63 62 63 64 65 65 72 63 61 59 56 50 55 47 52 54 45 49 48 47
47 49 46 49 51 43 44 47 46 56 57 59 59 63 59 59 59 62 64 64 65 66 67 72 71 66 67 70 63 56 54 61 56 52 42 48 58 55
31 43 49 51 49 47 41 41 42 49 51 53 57 63 65 64 65 65 67 65 66 70 73 74 74 66 63 64 66 69 58 56 73 67 57 61 64 71
32 39 42 49 50 46 50 48 45 46 49 57 58 65 65 70 70 70 73 70 70 75 74 63 62 67 71 75 78 73 68 68 63 62 61 63 66 65
30 31 37 42 47 49 53 57 55 51 53 56 63 63 66 70 73 75 76 72 70 74 72 67 65 64 66 69 70 70 67 66 73 67 64 66 63 63
Wind_Direction_850mb
225 234 235 240 244 252 249 236 246 248 247 246 242 241 237 226 232 232 243 243 245 251 262 279 288 293 280 267 255 246 239 233 233 237 237 239 241 244
233 238 239 238 240 243 249 242 238 255 266 255 245 242 246 242 236 235 238 238 245 251 263 279 288 297 284 270 256 246 241 237 236 237 241 242 243 244
241 240 239 241 248 244 244 245 246 254 264 263 248 243 248 247 244 239 236 238 243 248 259 267 281 304 299 280 264 251 244 242 240 241 242 243 244 246
241 244 241 239 244 245 250 250 250 255 264 262 254 242 237 239 244 244 241 240 244 247 255 259 260 280 289 282 270 255 246 240 240 239 241 244 246 248
241 243 245 241 246 249 256 258 256 258 260 262 254 248 243 240 236 234 236 240 241 246 252 255 251 261 271 270 258 254 252 252 243 237 240 244 246 249
241 242 242 243 245 249 254 259 266 267 262 259 254 248 243 238 234 231 230 236 239 245 251 252 245 248 254 263 252 245 250 251 248 244 244 243 245 251
245 246 249 251 252 254 257 258 260 260 259 256 253 248 245 242 231 229 232 237 242 247 250 251 246 246 248 254 251 245 243 249 246 252 251 257 258 255
256 260 263 263 260 258 256 257 256 255 254 253 253 252 253 247 241 238 236 237 238 244 247 255 245 244 241 244 249 240 230 241 244 254 263 266 260 258
253 252 251 249 256 265 264 259 255 250 251 253 253 252 253 252 249 241 243 245 252 255 255 256 252 244 241 242 240 237 234 240 248 258 268 270 266 259
261 253 254 256 261 265 264 265 259 253 246 244 247 252 252 253 255 258 255 255 255 253 253 255 262 254 246 238 236 239 242 246 253 263 270 268 259 250
256 251 265 266 282 266 272 273 268 259 257 252 251 251 249 243 243 246 245 246 249 249 247 251 254 250 243 238 237 237 241 245 247 258 255 247 241 235
255 256 260 270 275 262 279 279 278 272 265 260 255 252 248 235 235 236 241 242 248 252 251 249 249 244 243 242 240 238 238 236 238 246 241 225 217 221
255 262 275 295 258 247 275 277 273 278 273 260 259 252 251 246 240 231 232 237 241 247 253 259 256 244 242 244 243 239 240 232 229 237 220 211 213 218
266 262 243 235 246 267 270 268 267 265 268 252 242 250 245 241 236 232 231 238 244 256 263 265 261 250 243 242 241 238 235 231 222 220 213 211 214 219
297 288 267 259 261 264 265 259 259 252 253 255 251 249 250 251 236 231 231 237 243 250 254 254 254 246 244 242 245 247 236 229 221 218 212 213 220 224
293 287 286 271 261 262 262 257 254 250 249 248 258 259 259 242 235 233 232 230 242 253 248 240 243 240 235 236 242 249 247 230 223 220 219 222 226 231
272 268 277 284 287 275 268 257 252 250 241 246 246 249 245 238 234 236 233 234 247 247 239 235 236 225 227 225 232 228 241 240 232 231 226 230 232 233
258 259 267 274 285 287 282 273 256 253 245 241 242 243 240 235 236 233 241 243 242 236 236 232 224 213 226 228 227 231 232 241 237 235 232 238 230 239
267 264 267 271 274 272 279 270 268 256 251 249 247 243 236 239 243 239 240 242 235 232 232 228 223 221 220 223 230 226 220 222 237 230 238 241 245 260
273 275 278 274 271 266 273 280 264 258 255 256 258 248 242 245 246 248 243 237 233 232 231 226 225 233 227 226 217 216 236 241 225 231 238 255 258 262
279 269 262 269 266 267 270 273 269 265 263 264 260 259 248 247 249 251 246 239 234 229 228 231 232 233 230 234 235 230 231 234 232 234 255 256 259 260
287 271 273 265 258 267 269 273 273 265 261 260 262 257 256 260 248 253 248 235 231 228 234 238 231 228 230 231 234 237 235 232 236 242 243 248 252 253
286 287 279 274 271 273 272 271 272 271 263 262 261 258 258 257 254 249 247 242 235 230 233 233 229 226 230 230 229 231 231 235 228 230 238 248 249 249